Location: Asheville, NC
(35.6000°N, 82.5500°W)
Time: 10:47:49

NUDT-PHONESAT - Pass Details

Date: 07 January 2018
Orbit: 494 x 512 km, 97.4° (Epoch: 23 March)

Event Time Altitude Azimuth Distance (km) Brightness Sun altitude
Rises 18:27:48 0° 181° (S) 2,602 ? -11.0°
Reaches altitude 10° 18:29:56 10° 188° (S) 1,723 ? -11.4°
Maximum altitude 18:33:29 43° 261° (W) 729 ? -12.1°
Drops below altitude 10° 18:37:05 10° 334° (NNW) 1,740 ? -12.8°
Sets 18:39:16 0° 341° (NNW) 2,631 ? -13.2°
